Powrót do katalogu

TUBSAT

AktywnyNaukaSSO
NORAD 25757·PAYLOAD·🇩🇪 Germany

Wystrzelony May 26, 1999 z Satish Dhawan Space Centre

Loading…

Następne Przeloty (najbliższe 24 godziny)

TLE

ŚwieżeSource: Space-Track

Epoka: Sep 14, 2026, 05:31 UTC

1 25757U 99029B   26257.23030119  .00000036  00000-0  20679-4 0  9993
2 25757  98.6767 255.6956 0015357  80.3912 279.9017 14.52444739446173

Śledź TUBSAT w czasie rzeczywistym z AllMySat

Download on the App Store